QPF
0.00 0.00 0.00 0.00 0.00 0.00 0.00 0.00 0.00 0.00 0.00 0.00 0.00 0.00 0.00 0.00 0.00 0.00 0.00 0.00 0.00 0.00 0.00 0.00 0.00 0.00 0.00 0.00 0.00 0.00 0.00 0.00 0.00 0.00 0.00 0.00 0.00 0.00 0.00 0.00 0.00 0.00
0.00 0.00 0.00 0.00 0.00 0.00 0.00 0.00 0.00 0.00 0.00 0.00 0.00 0.00 0.00 0.00 0.00 0.00 0.00 0.00 0.00 0.00 0.00 0.00 0.00 0.00 0.00 0.00 0.00 0.00 0.00 0.00 0.00 0.00 0.00 0.00 0.00 0.00 0.00 0.00 0.00 0.00
0.00 0.00 0.00 0.00 0.00 0.00 0.00 0.00 0.00 0.00 0.00 0.00 0.00 0.00 0.00 0.00 0.00 0.00 0.00 0.00 0.00 0.00 0.00 0.00 0.00 0.00 0.00 0.00 0.00 0.00 0.00 0.00 0.00 0.00 0.00 0.00 0.00 0.00 0.00 0.00 0.00 0.00
0.00 0.00 0.00 0.00 0.00 0.00 0.00 0.00 0.00 0.00 0.00 0.00 0.00 0.00 0.00 0.00 0.00 0.00 0.00 0.00 0.00 0.00 0.00 0.00 0.00 0.00 0.00 0.00 0.00 0.00 0.00 0.00 0.00 0.00 0.00 0.00 0.00 0.00 0.00 0.00 0.00 0.00
0.00 0.00 0.00 0.00 0.00 0.00 0.00 0.00 0.00 0.00 0.00 0.00 0.00 0.00 0.00 0.00 0.00 0.00 0.00 0.00 0.00 0.00 0.00 0.00 0.00 0.00 0.00 0.00 0.00 0.00 0.00 0.00 0.00 0.00 0.00 0.00 0.00 0.00 0.00 0.00 0.00 0.00
0.00 0.00 0.00 0.00 0.00 0.00 0.00 0.00 0.00 0.00 0.00 0.00 0.00 0.00 0.00 0.00 0.00 0.00 0.00 0.00 0.00 0.00 0.00 0.00 0.00 0.00 0.00 0.00 0.00 0.00 0.00 0.00 0.00 0.00 0.00 0.00 0.00 0.00 0.00 0.00 0.00 0.00
0.00 0.00 0.00 0.00 0.00 0.00 0.00 0.00 0.00 0.00 0.00 0.00 0.00 0.00 0.00 0.00 0.00 0.00 0.00 0.00 0.00 0.00 0.00 0.00 0.00 0.00 0.00 0.00 0.00 0.00 0.00 0.00 0.00 0.00 0.00 0.00 0.00 0.00 0.00 0.00 0.00 0.00
0.00 0.00 0.00 0.00 0.00 0.00 0.00 0.00 0.00 0.00 0.00 0.00 0.00 0.00 0.00 0.00 0.00 0.00 0.00 0.00 0.00 0.00 0.00 0.00 0.00 0.00 0.00 0.00 0.00 0.00 0.00 0.00 0.00 0.00 0.00 0.00 0.00 0.00 0.00 0.00 0.00 0.00
0.00 0.00 0.00 0.00 0.00 0.00 0.00 0.00 0.00 0.00 0.00 0.00 0.00 0.00 0.00 0.00 0.00 0.00 0.00 0.00 0.00 0.00 0.00 0.00 0.00 0.00 0.00 0.00 0.00 0.00 0.00 0.00 0.00 0.00 0.00 0.00 0.00 0.00 0.00 0.00 0.00 0.00
0.00 0.00 0.00 0.00 0.00 0.00 0.00 0.00 0.00 0.00 0.00 0.00 0.00 0.00 0.00 0.00 0.00 0.00 0.00 0.00 0.00 0.00 0.00 0.00 0.00 0.00 0.00 0.00 0.00 0.00 0.00 0.00 0.00 0.00 0.00 0.00 0.00 0.00 0.00 0.00 0.00 0.00
0.00 0.00 0.00 0.00 0.00 0.00 0.00 0.00 0.00 0.00 0.00 0.00 0.00 0.00 0.00 0.00 0.00 0.00 0.00 0.00 0.00 0.00 0.00 0.00 0.00 0.00 0.00 0.00 0.00 0.00 0.00 0.00 0.00 0.00 0.00 0.00 0.00 0.00 0.00 0.00 0.00 0.00
0.00 0.00 0.00 0.00 0.00 0.00 0.00 0.00 0.00 0.00 0.00 0.00 0.00 0.00 0.00 0.00 0.00 0.00 0.00 0.00 0.00 0.00 0.00 0.00 0.00 0.00 0.00 0.00 0.00 0.00 0.00 0.00 0.00 0.00 0.00 0.00 0.00 0.00 0.00 0.00 0.00 0.00
0.00 0.00 0.00 0.00 0.00 0.00 0.00 0.00 0.00 0.00 0.00 0.00 0.00 0.00 0.00 0.00 0.00 0.00 0.00 0.00 0.00 0.00 0.00 0.00 0.00 0.00 0.00 0.00 0.00 0.00 0.00 0.00 0.00 0.00 0.00 0.00 0.00 0.00 0.00 0.00 0.00 0.00
0.00 0.00 0.00 0.00 0.00 0.00 0.00 0.00 0.00 0.00 0.00 0.00 0.00 0.00 0.00 0.00 0.00 0.00 0.00 0.00 0.00 0.00 0.00 0.00 0.00 0.00 0.00 0.00 0.00 0.00 0.00 0.00 0.00 0.00 0.00 0.00 0.00 0.00 0.00 0.00 0.00 0.00
0.00 0.00 0.00 0.00 0.00 0.00 0.00 0.00 0.00 0.00 0.00 0.00 0.00 0.00 0.00 0.00 0.00 0.00 0.00 0.00 0.00 0.00 0.00 0.00 0.00 0.00 0.00 0.00 0.00 0.00 0.00 0.00 0.00 0.00 0.00 0.00 0.00 0.00 0.00 0.00 0.00 0.00
0.00 0.00 0.00 0.00 0.00 0.00 0.00 0.00 0.00 0.00 0.00 0.00 0.00 0.00 0.00 0.00 0.00 0.00 0.00 0.00 0.00 0.00 0.00 0.00 0.00 0.00 0.00 0.00 0.00 0.00 0.00 0.00 0.00 0.00 0.00 0.00 0.00 0.00 0.00 0.00 0.00 0.00
0.00 0.00 0.00 0.00 0.00 0.00 0.00 0.00 0.00 0.00 0.00 0.00 0.00 0.00 0.00 0.00 0.00 0.00 0.00 0.00 0.00 0.00 0.00 0.00 0.00 0.00 0.00 0.00 0.00 0.00 0.00 0.00 0.00 0.00 0.00 0.00 0.00 0.00 0.00 0.00 0.00 0.00
0.00 0.00 0.00 0.00 0.00 0.00 0.00 0.00 0.00 0.00 0.00 0.00 0.00 0.00 0.00 0.00 0.00 0.00 0.00 0.00 0.00 0.00 0.00 0.00 0.00 0.00 0.00 0.00 0.00 0.00 0.00 0.00 0.00 0.00 0.00 0.00 0.00 0.00 0.00 0.00 0.00 0.00
0.00 0.00 0.00 0.00 0.00 0.00 0.00 0.00 0.00 0.00 0.00 0.00 0.00 0.00 0.00 0.00 0.00 0.00 0.00 0.00 0.00 0.00 0.00 0.00 0.00 0.00 0.00 0.00 0.00 0.00 0.00 0.00 0.00 0.00 0.00 0.00 0.00 0.00 0.00 0.00 0.00 0.00
0.00 0.00 0.00 0.00 0.00 0.00 0.00 0.00 0.00 0.00 0.00 0.00 0.00 0.00 0.00 0.00 0.00 0.00 0.00 0.00 0.00 0.00 0.00 0.00 0.00 0.00 0.00 0.00 0.00 0.00 0.00 0.00 0.00 0.00 0.00 0.00 0.00 0.00 0.00 0.00 0.00 0.00
0.00 0.00 0.00 0.00 0.00 0.00 0.00 0.00 0.00 0.00 0.00 0.00 0.00 0.00 0.00 0.00 0.00 0.00 0.00 0.00 0.00 0.00 0.00 0.00 0.00 0.00 0.00 0.00 0.00 0.00 0.00 0.00 0.00 0.00 0.00 0.00 0.00 0.00 0.00 0.00 0.00 0.00
0.00 0.00 0.00 0.00 0.00 0.00 0.00 0.00 0.00 0.00 0.00 0.00 0.00 0.00 0.00 0.00 0.00 0.00 0.00 0.00 0.00 0.00 0.00 0.00 0.00 0.00 0.00 0.00 0.00 0.00 0.00 0.00 0.00 0.00 0.00 0.00 0.00 0.00 0.00 0.00 0.00 0.00
0.00 0.00 0.00 0.00 0.00 0.00 0.00 0.00 0.00 0.00 0.00 0.00 0.00 0.00 0.00 0.00 0.00 0.00 0.00 0.00 0.00 0.00 0.00 0.00 0.00 0.00 0.00 0.00 0.00 0.00 0.00 0.00 0.00 0.00 0.00 0.00 0.00 0.00 0.00 0.00 0.00 0.00
0.00 0.00 0.01 0.01 0.01 0.01 0.00 0.00 0.00 0.00 0.00 0.00 0.00 0.00 0.00 0.00 0.00 0.00 0.00 0.00 0.00 0.00 0.00 0.00 0.00 0.00 0.00 0.00 0.00 0.00 0.00 0.00 0.00 0.00 0.00 0.00 0.00 0.00 0.00 0.00 0.00 0.00
0.00 0.01 0.01 0.01 0.01 0.00 0.00 0.00 0.00 0.00 0.00 0.00 0.00 0.00 0.00 0.00 0.00 0.00 0.00 0.00 0.00 0.00 0.00 0.00 0.00 0.00 0.00 0.00 0.00 0.00 0.00 0.00 0.00 0.00 0.00 0.00 0.00 0.00 0.00 0.00 0.00 0.00
0.01 0.01 0.01 0.02 0.01 0.01 0.00 0.00 0.00 0.00 0.00 0.00 0.00 0.00 0.00 0.00 0.00 0.00 0.00 0.00 0.00 0.00 0.00 0.00 0.00 0.01 0.00 0.00 0.00 0.00 0.00 0.00 0.00 0.00 0.00 0.00 0.00 0.00 0.00 0.00 0.00 0.00
MSLP
1020.42 1020.66 1020.94 1021.26 1021.58 1021.94 1022.26 1022.46 1022.58 1022.74 1022.98 1023.14 1023.38 1023.74 1024.02 1024.34 1024.58 1024.82 1025.06 1025.26 1025.46 1025.58 1025.70 1025.78 1025.90 1026.02 1026.18 1026.30 1026.42 1026.50 1026.62 1026.70 1026.74 1026.78 1026.78 1026.70 1026.74 1026.74 1026.82 1026.94 1026.94 1026.86
1020.58 1020.78 1020.98 1021.38 1021.86 1022.22 1022.42 1022.50 1022.70 1022.94 1023.22 1023.38 1023.58 1023.90 1024.22 1024.50 1024.78 1024.94 1025.22 1025.46 1025.62 1025.78 1025.90 1026.02 1026.18 1026.30 1026.42 1026.50 1026.70 1026.74 1026.82 1026.90 1026.94 1026.98 1026.94 1026.94 1026.98 1027.06 1027.18 1027.26 1027.22 1027.22
1020.66 1021.02 1021.26 1021.62 1021.98 1022.34 1022.54 1022.74 1022.94 1023.18 1023.38 1023.62 1023.82 1024.06 1024.38 1024.66 1024.94 1025.14 1025.38 1025.58 1025.82 1025.98 1026.14 1026.26 1026.42 1026.54 1026.66 1026.78 1026.86 1026.90 1026.98 1027.06 1027.06 1027.14 1027.06 1027.18 1027.26 1027.30 1027.46 1027.46 1027.54 1027.66
1020.78 1021.06 1021.38 1021.74 1022.02 1022.30 1022.58 1022.82 1023.14 1023.42 1023.62 1023.78 1023.98 1024.22 1024.46 1024.78 1025.02 1025.30 1025.54 1025.74 1025.90 1026.10 1026.34 1026.50 1026.62 1026.74 1026.82 1026.98 1027.02 1027.06 1027.14 1027.14 1027.22 1027.22 1027.26 1027.38 1027.50 1027.58 1027.70 1027.74 1027.86 1027.90
1020.82 1021.22 1021.54 1021.78 1022.06 1022.34 1022.62 1022.86 1023.18 1023.42 1023.54 1023.74 1024.06 1024.26 1024.50 1024.82 1025.06 1025.34 1025.58 1025.82 1025.98 1026.26 1026.46 1026.66 1026.78 1026.94 1027.02 1027.10 1027.14 1027.22 1027.26 1027.30 1027.38 1027.38 1027.46 1027.66 1027.82 1027.90 1028.02 1028.02 1028.14 1028.22
1020.94 1021.18 1021.50 1021.78 1022.06 1022.34 1022.62 1022.86 1023.10 1023.38 1023.62 1023.82 1024.10 1024.30 1024.54 1024.82 1025.02 1025.30 1025.58 1025.82 1026.06 1026.34 1026.58 1026.74 1026.94 1027.06 1027.14 1027.22 1027.26 1027.30 1027.34 1027.42 1027.58 1027.58 1027.70 1027.86 1028.06 1028.18 1028.26 1028.30 1028.30 1028.34
1021.06 1021.34 1021.62 1021.86 1022.10 1022.30 1022.50 1022.86 1023.18 1023.38 1023.58 1023.82 1024.10 1024.38 1024.58 1024.82 1025.06 1025.34 1025.58 1025.86 1026.10 1026.38 1026.58 1026.86 1027.02 1027.18 1027.22 1027.30 1027.34 1027.46 1027.54 1027.66 1027.74 1027.78 1027.86 1028.06 1028.22 1028.42 1028.42 1028.42 1028.38 1028.38
1021.02 1021.26 1021.50 1021.74 1022.06 1022.30 1022.58 1022.94 1023.26 1023.42 1023.66 1023.90 1024.14 1024.46 1024.58 1024.78 1025.06 1025.42 1025.66 1025.90 1026.18 1026.42 1026.66 1026.86 1027.02 1027.14 1027.30 1027.34 1027.46 1027.62 1027.78 1027.86 1027.94 1027.98 1028.06 1028.18 1028.30 1028.46 1028.58 1028.54 1028.46 1028.42
1020.86 1021.10 1021.34 1021.66 1021.94 1022.26 1022.66 1022.98 1023.30 1023.50 1023.66 1023.90 1024.18 1024.50 1024.70 1024.82 1025.14 1025.46 1025.70 1025.98 1026.26 1026.50 1026.70 1026.86 1026.98 1027.18 1027.34 1027.42 1027.54 1027.66 1027.82 1027.98 1028.06 1028.10 1028.18 1028.30 1028.38 1028.50 1028.54 1028.54 1028.50 1028.54
1020.78 1020.98 1021.26 1021.58 1021.94 1022.30 1022.74 1023.06 1023.30 1023.50 1023.70 1023.90 1024.18 1024.50 1024.78 1025.06 1025.26 1025.46 1025.78 1026.02 1026.30 1026.54 1026.74 1026.86 1027.02 1027.22 1027.30 1027.42 1027.54 1027.70 1027.86 1028.02 1028.14 1028.22 1028.30 1028.34 1028.42 1028.46 1028.50 1028.46 1028.54 1028.58
1020.70 1020.94 1021.26 1021.58 1021.94 1022.38 1022.82 1023.10 1023.34 1023.54 1023.74 1023.94 1024.26 1024.54 1024.82 1025.14 1025.42 1025.58 1025.78 1026.02 1026.26 1026.46 1026.70 1026.86 1026.98 1027.10 1027.22 1027.42 1027.66 1027.78 1027.90 1028.06 1028.18 1028.30 1028.38 1028.46 1028.50 1028.58 1028.58 1028.54 1028.58 1028.62
1020.70 1020.94 1021.26 1021.58 1022.02 1022.46 1022.78 1023.10 1023.34 1023.54 1023.78 1024.02 1024.18 1024.54 1024.90 1025.10 1025.38 1025.58 1025.66 1025.90 1026.14 1026.38 1026.58 1026.78 1026.94 1027.06 1027.18 1027.34 1027.58 1027.82 1027.98 1028.14 1028.26 1028.38 1028.42 1028.46 1028.54 1028.54 1028.58 1028.58 1028.58 1028.58
1020.62 1020.90 1021.22 1021.62 1022.06 1022.42 1022.74 1023.02 1023.26 1023.54 1023.74 1024.02 1024.26 1024.50 1024.86 1025.14 1025.38 1025.54 1025.74 1025.82 1026.10 1026.34 1026.54 1026.74 1026.90 1027.02 1027.14 1027.34 1027.58 1027.82 1028.02 1028.18 1028.34 1028.42 1028.50 1028.54 1028.54 1028.54 1028.58 1028.62 1028.58 1028.62
1020.62 1020.94 1021.26 1021.62 1022.02 1022.42 1022.70 1022.94 1023.26 1023.54 1023.78 1024.06 1024.34 1024.62 1024.82 1025.02 1025.30 1025.50 1025.82 1025.94 1026.14 1026.34 1026.50 1026.70 1026.90 1027.02 1027.14 1027.34 1027.54 1027.78 1027.98 1028.18 1028.30 1028.42 1028.46 1028.58 1028.58 1028.58 1028.58 1028.62 1028.66 1028.62
1020.70 1021.06 1021.34 1021.70 1022.10 1022.46 1022.78 1023.06 1023.30 1023.58 1023.90 1024.14 1024.42 1024.62 1024.90 1025.06 1025.26 1025.50 1025.82 1026.06 1026.26 1026.42 1026.58 1026.74 1026.82 1026.98 1027.14 1027.26 1027.46 1027.74 1027.94 1028.10 1028.22 1028.30 1028.38 1028.46 1028.46 1028.50 1028.54 1028.62 1028.62 1028.70
1020.74 1021.14 1021.46 1021.78 1022.10 1022.46 1022.78 1023.06 1023.38 1023.74 1024.02 1024.26 1024.46 1024.70 1024.98 1025.22 1025.38 1025.54 1025.70 1025.94 1026.22 1026.42 1026.58 1026.78 1026.82 1027.02 1027.26 1027.46 1027.50 1027.62 1027.82 1028.06 1028.22 1028.26 1028.26 1028.30 1028.34 1028.42 1028.54 1028.58 1028.66 1028.66
1020.74 1021.14 1021.42 1021.78 1022.06 1022.38 1022.82 1023.10 1023.42 1023.78 1024.06 1024.30 1024.58 1024.86 1025.10 1025.30 1025.46 1025.58 1025.70 1025.82 1026.02 1026.30 1026.54 1026.70 1026.82 1027.06 1027.50 1027.62 1027.74 1027.82 1027.82 1027.98 1028.14 1028.22 1028.22 1028.22 1028.22 1028.26 1028.34 1028.50 1028.58 1028.62
1020.66 1021.02 1021.38 1021.74 1022.10 1022.42 1022.78 1023.06 1023.42 1023.78 1024.06 1024.34 1024.66 1024.98 1025.14 1025.30 1025.46 1025.50 1025.66 1025.86 1026.02 1026.22 1026.42 1026.58 1026.74 1027.18 1027.50 1027.66 1027.82 1027.94 1027.90 1027.86 1027.98 1028.10 1028.18 1028.10 1028.10 1028.14 1028.18 1028.26 1028.42 1028.50
1020.54 1020.94 1021.30 1021.74 1022.10 1022.42 1022.74 1023.06 1023.38 1023.66 1024.02 1024.34 1024.62 1024.86 1025.10 1025.30 1025.34 1025.54 1025.74 1025.90 1026.06 1026.14 1026.30 1026.50 1026.66 1027.34 1027.46 1027.62 1027.74 1027.90 1028.02 1027.86 1027.78 1027.90 1027.98 1028.02 1028.06 1028.10 1028.10 1028.18 1028.26 1028.30
1020.54 1020.86 1021.26 1021.66 1022.02 1022.42 1022.78 1023.10 1023.34 1023.58 1023.90 1024.18 1024.50 1024.90 1025.10 1025.26 1025.46 1025.62 1025.82 1025.94 1026.02 1026.06 1026.22 1026.42 1026.58 1027.22 1027.46 1027.58 1027.66 1027.82 1027.98 1027.94 1027.58 1027.82 1027.86 1027.90 1027.98 1028.06 1028.14 1028.22 1028.30 1028.26
1020.46 1020.82 1021.18 1021.66 1022.10 1022.42 1022.74 1023.02 1023.26 1023.62 1023.98 1024.26 1024.50 1024.70 1024.90 1025.10 1025.38 1025.58 1025.78 1025.90 1025.98 1026.02 1026.18 1026.46 1026.62 1027.14 1027.34 1027.50 1027.58 1027.74 1027.90 1027.90 1027.54 1027.74 1027.78 1027.86 1027.90 1028.02 1028.10 1028.18 1028.38 1028.42
1020.30 1020.74 1021.18 1021.70 1022.18 1022.54 1022.78 1023.02 1023.38 1023.66 1023.98 1024.30 1024.54 1024.70 1024.82 1025.02 1025.30 1025.46 1025.74 1025.90 1026.02 1026.06 1026.14 1026.34 1026.74 1027.22 1027.34 1027.46 1027.58 1027.66 1027.90 1027.62 1027.50 1027.66 1027.70 1027.74 1027.90 1028.02 1028.06 1028.14 1028.22 1028.26
1020.18 1020.58 1021.10 1021.66 1022.18 1022.54 1022.82 1023.18 1023.54 1023.86 1024.06 1024.22 1024.50 1024.70 1024.90 1025.06 1025.26 1025.46 1025.66 1025.86 1026.14 1026.10 1026.10 1026.30 1026.66 1027.26 1027.42 1027.50 1027.58 1027.62 1027.58 1027.18 1027.38 1027.38 1027.50 1027.66 1027.78 1027.98 1028.02 1028.14 1028.22 1028.18
1020.10 1020.50 1021.02 1021.54 1022.02 1022.38 1022.70 1023.10 1023.50 1023.78 1024.02 1024.10 1024.26 1024.62 1024.86 1025.02 1025.22 1025.46 1025.74 1025.90 1026.06 1026.10 1025.98 1026.22 1026.54 1027.14 1027.46 1027.54 1027.58 1027.46 1027.18 1027.06 1027.18 1027.22 1027.54 1027.66 1027.82 1028.02 1027.94 1028.06 1028.26 1028.58
1020.02 1020.50 1020.94 1021.38 1021.78 1022.30 1022.70 1023.02 1023.26 1023.58 1023.82 1023.98 1024.14 1024.34 1024.62 1024.94 1025.22 1025.46 1025.86 1026.02 1026.06 1026.10 1026.30 1026.30 1026.54 1027.18 1027.58 1027.58 1027.66 1027.54 1027.30 1026.98 1027.06 1027.26 1027.74 1027.74 1027.74 1027.94 1027.98 1027.94 1028.18 1028.42
1019.98 1020.46 1020.94 1021.26 1021.66 1022.22 1022.54 1022.74 1022.94 1023.38 1023.78 1023.94 1024.18 1024.26 1024.54 1024.90 1025.26 1025.42 1025.78 1026.10 1026.30 1026.34 1026.46 1026.38 1026.46 1026.86 1027.50 1027.86 1027.82 1027.74 1027.46 1027.06 1026.98 1027.10 1027.38 1027.70 1027.66 1027.54 1027.74 1027.82 1027.86 1027.94
Thickness
5635 5634 5632 5630 5628 5626 5624 5623 5622 5621 5620 5619 5617 5615 5613 5611 5609 5607 5605 5603 5601 5600 5599 5598 5596 5594 5591 5589 5586 5585 5582 5580 5578 5575 5573 5572 5569 5567 5565 5561 5559 5557
5631 5630 5629 5627 5624 5622 5621 5620 5619 5618 5617 5616 5615 5613 5610 5608 5606 5604 5602 5600 5598 5596 5595 5593 5591 5589 5587 5585 5582 5580 5578 5576 5574 5571 5569 5568 5565 5561 5559 5556 5553 5551
5628 5627 5626 5624 5621 5619 5618 5617 5616 5615 5614 5612 5612 5610 5608 5605 5603 5600 5598 5596 5595 5593 5591 5589 5587 5585 5582 5580 5578 5576 5575 5572 5570 5567 5565 5563 5559 5556 5554 5551 5548 5545
5625 5624 5623 5621 5619 5617 5616 5615 5613 5612 5611 5610 5609 5607 5604 5602 5600 5598 5595 5593 5592 5590 5588 5585 5583 5581 5578 5576 5575 5573 5570 5568 5566 5563 5561 5558 5554 5551 5548 5545 5542 5539
5623 5622 5620 5618 5617 5615 5613 5613 5611 5610 5609 5608 5607 5604 5602 5600 5598 5595 5593 5591 5589 5587 5584 5582 5579 5577 5575 5572 5571 5569 5566 5564 5561 5559 5556 5552 5548 5545 5542 5539 5537 5534
5621 5619 5618 5616 5615 5613 5612 5611 5610 5608 5607 5606 5604 5602 5600 5598 5596 5593 5591 5589 5586 5584 5581 5578 5576 5573 5571 5569 5567 5565 5562 5560 5556 5554 5551 5547 5543 5540 5537 5535 5532 5530
5618 5617 5616 5614 5613 5612 5611 5609 5607 5606 5605 5603 5602 5600 5598 5596 5594 5591 5589 5586 5583 5581 5578 5575 5572 5570 5568 5566 5563 5561 5558 5555 5552 5549 5546 5542 5539 5536 5532 5530 5528 5526
5617 5615 5614 5613 5611 5610 5609 5607 5605 5604 5603 5601 5600 5597 5595 5594 5591 5588 5586 5583 5580 5577 5574 5572 5569 5567 5564 5562 5560 5556 5554 5550 5547 5544 5541 5538 5535 5532 5529 5526 5525 5523
5615 5614 5613 5611 5610 5608 5606 5604 5603 5602 5601 5600 5598 5595 5592 5590 5588 5586 5582 5580 5577 5574 5571 5569 5566 5564 5561 5558 5556 5553 5550 5546 5543 5540 5537 5534 5531 5528 5526 5523 5522 5519
5614 5613 5611 5610 5607 5605 5604 5602 5601 5600 5598 5597 5595 5592 5590 5587 5585 5582 5580 5577 5574 5571 5568 5565 5564 5561 5558 5555 5552 5549 5546 5542 5539 5536 5533 5531 5528 5525 5522 5520 5518 5516
5613 5611 5610 5608 5606 5603 5602 5600 5599 5597 5595 5594 5592 5589 5587 5584 5582 5579 5576 5573 5571 5568 5566 5563 5561 5558 5556 5552 5549 5545 5542 5538 5535 5533 5530 5527 5524 5522 5519 5517 5515 5512
5611 5610 5608 5606 5603 5601 5599 5597 5596 5594 5593 5592 5589 5587 5584 5581 5579 5576 5573 5571 5568 5565 5563 5560 5558 5555 5552 5549 5545 5542 5538 5535 5532 5529 5527 5524 5521 5519 5516 5514 5511 5509
5609 5608 5606 5604 5601 5599 5597 5595 5594 5592 5590 5588 5586 5584 5581 5579 5576 5573 5571 5569 5565 5562 5560 5557 5555 5552 5549 5546 5542 5539 5535 5532 5529 5526 5523 5521 5518 5516 5513 5510 5508 5505
5607 5606 5603 5602 5599 5596 5594 5592 5591 5589 5587 5585 5583 5581 5578 5576 5573 5571 5568 5565 5562 5559 5557 5554 5551 5549 5546 5543 5539 5536 5532 5528 5526 5523 5520 5518 5515 5513 5510 5507 5505 5502
5604 5603 5601 5598 5596 5594 5591 5589 5587 5586 5584 5582 5579 5577 5575 5572 5570 5567 5565 5562 5558 5556 5553 5550 5548 5545 5542 5540 5537 5533 5529 5526 5523 5521 5518 5516 5513 5510 5508 5504 5501 5498
5602 5600 5598 5596 5593 5591 5589 5586 5584 5582 5580 5578 5576 5573 5571 5569 5566 5564 5561 5559 5555 5553 5549 5547 5545 5542 5539 5536 5533 5530 5526 5523 5520 5518 5516 5514 5511 5508 5504 5501 5498 5495
5599 5598 5595 5593 5591 5588 5586 5583 5581 5579 5577 5575 5572 5569 5567 5565 5562 5560 5558 5555 5552 5549 5546 5544 5541 5538 5535 5532 5529 5526 5523 5520 5518 5515 5513 5511 5508 5505 5502 5499 5495 5492
5597 5595 5593 5590 5588 5585 5583 5580 5578 5576 5573 5571 5568 5565 5563 5561 5559 5557 5554 5551 5549 5546 5543 5541 5538 5535 5531 5528 5526 5523 5520 5518 5515 5513 5510 5508 5506 5503 5499 5496 5492 5489
5595 5593 5590 5587 5585 5582 5580 5577 5575 5572 5570 5568 5565 5562 5559 5557 5555 5553 5550 5547 5545 5542 5540 5537 5535 5531 5528 5525 5522 5519 5516 5515 5513 5510 5508 5506 5503 5499 5496 5493 5490 5487
5592 5590 5587 5584 5581 5579 5576 5573 5571 5569 5566 5564 5561 5558 5556 5554 5551 5548 5545 5543 5541 5539 5536 5534 5531 5528 5524 5522 5520 5517 5514 5512 5510 5508 5505 5502 5499 5496 5493 5490 5486 5484
5589 5587 5584 5581 5577 5574 5572 5570 5567 5565 5563 5560 5558 5555 5553 5550 5547 5544 5542 5539 5538 5535 5533 5530 5527 5524 5521 5518 5516 5513 5510 5508 5507 5505 5502 5499 5496 5493 5490 5486 5483 5480
5587 5584 5581 5577 5573 5570 5569 5566 5563 5561 5559 5557 5554 5551 5549 5547 5544 5541 5538 5535 5533 5531 5529 5527 5523 5520 5517 5515 5513 5510 5508 5506 5504 5501 5499 5496 5493 5489 5486 5483 5480 5477
5584 5581 5578 5573 5570 5567 5565 5562 5559 5557 5555 5553 5550 5547 5545 5543 5539 5537 5534 5531 5529 5527 5526 5523 5519 5515 5513 5511 5509 5507 5505 5503 5501 5499 5496 5493 5489 5485 5483 5479 5476 5474
5581 5578 5575 5571 5567 5564 5561 5558 5555 5553 5551 5549 5547 5544 5541 5538 5536 5533 5530 5527 5525 5523 5521 5519 5515 5511 5508 5506 5505 5504 5502 5501 5498 5495 5491 5489 5485 5482 5479 5476 5473 5470
5578 5574 5571 5567 5564 5560 5557 5555 5553 5549 5547 5545 5543 5541 5538 5535 5531 5528 5525 5522 5520 5519 5517 5514 5511 5507 5503 5501 5500 5499 5498 5497 5495 5491 5487 5484 5482 5479 5476 5473 5470 5467
5574 5571 5567 5564 5561 5557 5553 5552 5550 5547 5543 5541 5539 5536 5534 5530 5527 5524 5521 5517 5515 5514 5511 5510 5507 5503 5498 5496 5494 5493 5492 5492 5491 5489 5484 5481 5479 5477 5474 5471 5468 5466